User: anonymous   Login
Location: الشقيري
(17.1356°N, 42.8272°E)
Time: 20:13:43
(UTC+00:00)
Language:

Vanguard 1 - Orbit

View from above orbital plane
View from above orbital plane
View from above satellite
View from above satellite

Ground track
Ground track

The orbit data is extracted from the following two-line orbital elements,

1     5U 58002B   19108.30333983 +.00000022 +00000-0 +27521-5 0  9997
2     5 034.2544 100.8345 1844611 234.8781 106.4924 10.84770731158972
Epoch (UTC): 18 April 2019 07:16:48
Eccentricity: 0.1844611
inclination: 34.2544°
perigee height: 652 km
apogee height: 3832 km
right ascension of ascending node: 100.8345°
argument of perigee: 234.8781°
revolutions per day: 10.84770731
mean anomaly at epoch: 106.4924°
orbit number at epoch: 15897

The dashed part of the orbit path shows where the satellite is in the earth's shadow,  

DLR